IT9LCP-2 Weather Reports


time (UTC)temp
C
wind
direction
speed
KPH
gust
KPH
rain 1hr
cm
rain 24hr
cm
rain mn
cm
humidity
%
barometer
mb
20260507102148 19 60 3.2 11.3 0.00 0.00 0.00 68 1015.0
20260507101148 18 37 4.8 12.9 0.00 0.00 0.00 68 1014.8
20260507100147 18 45 4.8 11.3 0.00 0.00 0.00 69 1015.1
20260507095149 18 35 4.8 12.9 0.00 0.00 0.00 68 1015.2
20260507094148 18 44 3.2 11.3 0.00 0.00 0.00 67 1015.4
20260507093148 18 63 4.8 11.3 0.00 0.00 0.00 66 1015.1
20260507092148 18 39 3.2 11.3 0.00 0.00 0.00 67 1015.2
20260507091148 18 37 4.8 14.5 0.00 0.00 0.00 68 1015.3
20260507090148 18 34 3.2 12.9 0.00 0.00 0.00 68 1015.5
20260507085148 18 45 3.2 12.9 0.00 0.00 0.00 69 1015.2
20260507084148 18 48 3.2 11.3 0.00 0.00 0.00 72 1015.0
20260507083148 17 42 4.8 11.3 0.00 0.00 0.00 75 1015.2
20260507082148 17 37 3.2 11.3 0.00 0.00 0.00 75 1014.9
20260507081147 17 52 1.6 8.0 0.00 0.00 0.00 74 1014.8
20260507080148 17 33 1.6 11.3 0.00 0.00 0.00 75 1014.9
20260507075148 17 32 3.2 9.7 0.00 0.00 0.00 76 1015.0
20260507073148 17 38 3.2 12.9 0.00 0.00 0.00 79 1015.2
20260507072148 17 57 1.6 8.0 0.00 0.00 0.00 78 1015.2
20260507071149 17 48 3.2 9.7 0.00 0.00 0.00 81 1015.3
20260507070147 16 19 3.2 8.0 0.00 0.00 0.00 84 1015.4
20260507065148 16 33 3.2 8.0 0.00 0.00 0.00 87 1015.5
20260507064148 16 5 3.2 8.0 0.00 0.00 0.00 90 1015.2
20260507063147 16 9 3.2 4.8 0.00 0.00 0.00 92 1015.1
20260507062148 15 8 3.2 8.0 0.00 0.00 0.00 93 1015.0
20260507060148 15 348 1.6 4.8 0.00 0.00 0.00 94 1015.1
20260507054148 15 0 3.2 4.8 0.00 0.00 0.00 96 1015.2
20260507053148 15 356 1.6 9.7 0.00 0.00 0.00 97 1015.3
20260507052148 15 4 3.2 4.8 0.00 0.00 0.00 97 1015.2
20260507051148 15 347 1.6 4.8 0.00 0.00 0.00 97 1015.0
20260507050148 15 343 4.8 12.9 0.00 0.00 0.00 97 1014.8
20260507045147 15 58 3.2 8.0 0.00 0.00 0.00 98 1015.0
20260507044148 14 12 4.8 8.0 0.00 0.00 0.00 97 1014.8
20260507043148 14 75 3.2 8.0 0.00 0.00 0.00 97 1014.7
20260507042148 14 86 3.2 8.0 0.00 0.00 0.00 97 1014.7
20260507040147 14 21 1.6 4.8 0.00 0.00 0.00 97 1014.8
20260507035149 14 312 3.2 11.3 0.00 0.00 0.00 96 1014.8
20260507034148 14 342 3.2 8.0 0.00 0.00 0.00 96 1015.0
20260507032147 14 329 1.6 3.2 0.00 0.00 0.00 96 1014.9
20260507031148 14 342 3.2 4.8 0.00 0.00 0.00 95 1015.3
20260507025148 14 340 3.2 4.8 0.00 0.00 0.00 95 1014.7
20260507024148 15 348 3.2 4.8 0.00 0.00 0.00 94 1014.6
20260507023148 15 345 3.2 4.8 0.00 0.00 0.00 93 1015.0
20260507022148 15 330 1.6 4.8 0.00 0.00 0.00 92 1014.5
20260507021148 15 346 3.2 3.2 0.00 0.00 0.00 89 1014.6
20260507020148 15 7 3.2 4.8 0.00 0.00 0.00 86 1014.3
20260507014148 15 351 3.2 4.8 0.00 0.00 0.00 83 1014.3
20260507013148 14 340 3.2 4.8 0.00 0.00 0.00 85 1014.6
20260507012148 15 336 3.2 4.8 0.00 0.00 0.00 87 1014.8
20260507011148 15 348 1.6 4.8 0.00 0.00 0.00 86 1014.7
20260507010148 15 346 3.2 4.8 0.00 0.00 0.00 84 1014.8
20260507005147 15 356 3.2 4.8 0.00 0.00 0.00 80 1014.8
20260507004147 15 355 3.2 4.8 0.00 0.00 0.00 77 1014.8
20260507003147 15 354 3.2 4.8 0.00 0.00 0.00 78 1015.1
20260507002148 15 347 3.2 4.8 0.00 0.00 0.00 79 1015.1
20260507001147 15 354 3.2 4.8 0.00 0.00 0.00 81 1015.1
20260507000148 14 355 1.6 4.8 0.00 0.00 0.00 83 1015.4
20260506235147 14 347 1.6 4.8 0.00 0.00 0.00 87 1015.2
20260506234148 14 355 3.2 4.8 0.00 0.00 0.00 91 1015.4
20260506233147 14 346 3.2 4.8 0.00 0.00 0.00 92 1015.2
20260506232147 14 349 3.2 4.8 0.00 0.00 0.00 93 1015.4
20260506231148 14 349 1.6 4.8 0.00 0.00 0.00 93 1015.5
20260506225148 14 341 3.2 4.8 0.00 0.00 0.00 94 1015.4
20260506224148 14 348 3.2 4.8 0.00 0.00 0.00 95 1015.8
20260506223148 14 347 3.2 4.8 0.00 0.00 0.00 95 1015.8
20260506222148 14 336 3.2 4.8 0.00 0.00 0.00 95 1015.6
20260506221148 14 355 3.2 4.8 0.00 0.00 0.00 95 1015.8
20260506215148 15 338 1.6 4.8 0.00 0.00 0.00 95 1015.8
20260506214147 15 351 3.2 4.8 0.00 0.00 0.00 95 1015.9
20260506213147 15 349 1.6 4.8 0.00 0.00 0.00 96 1015.9
20260506212148 15 336 3.2 3.2 0.00 0.00 0.00 96 1016.0
20260506210147 15 341 3.2 4.8 0.00 0.00 0.00 96 1015.6
20260506204148 15 328 3.2 4.8 0.00 0.00 0.00 95 1015.2
20260506203148 15 346 3.2 4.8 0.00 0.00 0.00 95 1015.3
20260506202148 15 356 1.6 4.8 0.00 0.00 0.00 95 1014.9
20260506201148 15 345 1.6 3.2 0.00 0.00 0.00 94 1015.0
20260506200147 15 341 1.6 3.2 0.00 0.00 0.00 94 1015.2
20260506195147 15 340 1.6 4.8 0.00 0.00 0.00 94 1015.1
20260506194148 15 334 3.2 4.8 0.00 0.00 0.00 93 1015.7
20260506193148 15 0 1.6 3.2 0.00 0.00 0.00 93 1015.8
20260506192148 15 354 3.2 4.8 0.00 0.00 0.00 93 1015.9
20260506191148 15 346 3.2 3.2 0.00 0.00 0.00 93 1016.0
20260506185147 15 336 1.6 4.8 0.00 0.00 0.00 92 1015.8
20260506184147 15 323 3.2 3.2 0.00 0.00 0.00 92 1015.9
20260506183148 16 342 1.6 3.2 0.00 0.00 0.00 92 1015.9
20260506182148 16 336 1.6 4.8 0.00 0.00 0.00 92 1015.9
20260506181147 16 337 3.2 4.8 0.00 0.00 0.00 92 1015.8
20260506180148 16 341 1.6 3.2 0.00 0.00 0.00 93 1016.0
20260506175147 16 17 1.6 3.2 0.00 0.00 0.00 93 1015.8
20260506174147 16 42 1.6 3.2 0.00 0.00 0.00 93 1015.8
20260506173147 16 329 1.6 3.2 0.00 0.00 0.00 92 1015.6
20260506172147 16 72 1.6 3.2 0.00 0.00 0.00 91 1015.6
20260506171148 16 8 1.6 3.2 0.00 0.00 0.00 90 1015.6
20260506170148 16 349 1.6 3.2 0.00 0.00 0.00 89 1015.4
20260506165147 16 56 1.6 3.2 0.00 0.00 0.00 89 1015.6
20260506164148 16 39 1.6 3.2 0.00 0.00 0.00 89 1015.8
20260506163147 16 97 1.6 3.2 0.00 0.00 0.00 87 1015.6
20260506162148 16 65 1.6 3.2 0.00 0.00 0.00 86 1015.8
20260506161148 16 35 1.6 4.8 0.00 0.00 0.00 86 1015.9
20260506160148 17 104 3.2 3.2 0.00 0.00 0.00 83 1015.9
20260506155147 17 73 1.6 4.8 0.00 0.00 0.00 81 1015.9
20260506153147 17 57 1.6 3.2 0.00 0.00 0.00 84 1015.8
20260506151147 17 88 1.6 3.2 0.00 0.00 0.00 83 1016.1
20260506150148 17 74 1.6 4.8 0.00 0.00 0.00 85 1016.3
20260506143149 17 93 3.2 8.0 0.00 0.00 0.00 81 1016.1
20260506142147 17 131 3.2 4.8 0.00 0.00 0.00 78 1016.2
20260506141147 17 135 4.8 8.0 0.00 0.00 0.00 81 1016.6
20260506140147 16 134 3.2 4.8 0.00 0.00 0.00 83 1016.3
20260506133148 16 81 3.2 9.7 0.00 0.00 0.00 83 1016.3
20260506132147 16 149 3.2 4.8 0.00 0.00 0.00 82 1016.2
20260506131147 17 104 4.8 8.0 0.00 0.00 0.00 81 1016.4
20260506130147 17 95 3.2 8.0 0.00 0.00 0.00 83 1016.6
20260506125147 18 118 3.2 8.0 0.00 0.00 0.00 79 1016.3
20260506124149 17 34 3.2 9.7 0.00 0.00 0.00 79 1016.3
20260506123147 17 81 4.8 8.0 0.00 0.00 0.00 79 1016.7
20260506122147 17 93 3.2 8.0 0.00 0.00 0.00 80 1016.9
20260506121147 17 149 1.6 8.0 0.00 0.00 0.00 80 1016.9
20260506120147 17 84 4.8 8.0 0.00 0.00 0.00 81 1017.1
20260506113147 17 122 4.8 8.0 0.00 0.00 0.00 80 1017.1
20260506112147 17 117 3.2 9.7 0.00 0.00 0.00 83 1016.9
20260506111147 17 90 3.2 8.0 0.00 0.00 0.00 81 1016.9
20260506110146 17 133 3.2 8.0 0.00 0.00 0.00 79 1017.1
20260506105147 17 114 3.2 8.0 0.00 0.00 0.00 77 1016.9
20260506104147 17 88 3.2 8.0 0.00 0.00 0.00 76 1017.0